829  
ASUS44 KHUN 031810  
RWRHUN  
 
WEATHER ROUNDUP FOR THE TENNESSEE VALLEY  
NATIONAL WEATHER SERVICE HUNTSVILLE AL  
1200 PM CST SAT DEC 03 2022  
 
ALZ001>004-031900-  
NORTHWEST ALABAMA  
 
CITY SKY/WX TMP DP RH WIND PRES REMARKS
 
BANKHEAD NF N/A 67 61 80 N2 N/A  
SHOALS AIRPORT PTSUNNY 69 58 67 NW6 30.29F  
6HR MIN TEMP: 62; 6HR MAX TEMP: 70; 6HR PCP: 0.03;  
 

 
 
ALZ005>007-016-031900-  
NORTH CENTRAL ALABAMA  
 
CITY SKY/WX TMP DP RH WIND PRES REMARKS
 
DECATUR AP CLOUDY 66 60 81 NW7 30.28F  
6HR MIN TEMP: 59; 6HR MAX TEMP: 68; 6HR PCP: 0.03;  
 
HUNTSVILLE AP PTSUNNY 67 60 78 N5 30.28F  
6HR MIN TEMP: 59; 6HR MAX TEMP: 67; 6HR PCP: 0.04;  
 
HUN NWS/UAH N/A 67 61 82 CALM N/A  
MERIDIANVILLE PTSUNNY 67 58 75 N9 30.28F  
VINEMONT AP CLOUDY 68 63 83 VRB6 30.29F  

 
 
ALZ008>010-031900-  
NORTHEAST ALABAMA  
 
CITY SKY/WX TMP DP RH WIND PRES REMARKS
 
ALBERTVILLE CLOUDY 63 61 94 W5 30.28F  
FORT PAYNE CLOUDY 60 58 93 SW7 30.28F  
SCOTTSBORO AP CLOUDY 61 61 100 W3 30.29S FOG  

 
 
TNZ076-096-097-031900-  
SOUTHEASTERN MIDDLE TENNESSEE  
 
CITY SKY/WX TMP DP RH WIND PRES REMARKS
 
FAYETTEVILLE CLOUDY 64 59 82 NW7 30.29F  
TULLAHOMA CLOUDY 63 57 82 NW9 30.27F  
WINCHESTER PTSUNNY 64 59 82 CALM 30.27F  

 
   
..SURROUNDING SITES
 
 
 
CITY SKY/WX TMP DP RH WIND PRES REMARKS
 
ATLANTA LGT RAIN 61 58 90 W10 30.31F FOG  
ANNISTON CLOUDY 61 59 93 W5 30.30F  
BIRMINGHAM CLOUDY 64 62 93 SW5 30.31F  
CHATTANOOGA CLOUDY 59 56 89 NW5 30.29F  
CORINTH CLOUDY 63 54 72 NW12 30.33S  
DALTON CLOUDY 58 56 92 S5 30.30F  
GADSDEN CLOUDY 62 62 100 SW6 30.29F  
GOLDEN TRNGL MOSUNNY 73 63 70 N13 30.29F  
HALEYVILLE CLOUDY 64 60 87 N7 30.32F  
JACKSON TN CLOUDY 52 39 61 N15 30.40R  
MEMPHIS PTSUNNY 54 40 59 NW14G20 30.41S  
NASHVILLE CLOUDY 53 39 59 NW13 30.35R  
OXFORD MS CLOUDY 63 55 77 NW9 30.35F  
ROME CLOUDY 59 57 93 S5 30.29F  
SAVANNAH CLOUDY 63 55 77 N12 30.31F  
SELMER CLOUDY 59 52 77 VRB7G20 30.34R  
TUPELO MOSUNNY 69 57 65 N13 30.31F  
TUSCALOOSA CLOUDY 69 66 90 S5 30.28F  

 
 
 
 
CLICK HERE TO GO TO PREVIOUS BULLETINS.

The Nexlab AL Page
The Nexlab TN Page Main Text Page